• Em Portugal
  • Lista de países
  • Para 7 dias
  • Temperatura da água
  • Mapas de satélite
  • Mapa do tempo
  • Widgets de tempo
  • user-avatar
    Iniciar Sessão

    Previsão horária em Sidnei

    Hoje, 20 Agosto, Segunda-feira

    Tempo Temperatura Precipitação Vento Pressão Humidade
    00:00 +6°C° 0 mm 9 m/s 762 mmHg 53%
    01:00 +6°C° 0 mm 9 m/s 762 mmHg 54%
    02:00 +6°C° 0,1 mm 9 m/s 762 mmHg 54%
    03:00 +5°C° 0,1 mm 9 m/s 763 mmHg 55%
    04:00 +5°C° 0 mm 10 m/s 762 mmHg 55%
    05:00 +5°C° 0,1 mm 9 m/s 762 mmHg 54%
    06:00 +5°C° 0,1 mm 9 m/s 763 mmHg 54%
    07:00 +5°C° 0,1 mm 9 m/s 763 mmHg 54%
    08:00 +7°C° 0 mm 9 m/s 764 mmHg 47%
    09:00 +10°C° 0 mm 8 m/s 764 mmHg 41%
    10:00 +11°C° 0 mm 8 m/s 764 mmHg 34%
    11:00 +12°C° 0 mm 7 m/s 764 mmHg 31%
    12:00 +15°C° 0 mm 7 m/s 763 mmHg 27%
    13:00 +16°C° 0 mm 6 m/s 763 mmHg 24%
    14:00 +16°C° 0 mm 5 m/s 763 mmHg 24%
    15:00 +16°C° 0 mm 5 m/s 763 mmHg 24%
    16:00 +17°C° 0 mm 4 m/s 762 mmHg 24%
    17:00 +14°C° 0 mm 3 m/s 763 mmHg 32%
    18:00 +11°C° 0 mm 3 m/s 763 mmHg 40%
    19:00 +9°C° 0 mm 2 m/s 763 mmHg 48%
    20:00 +9°C° 0 mm 3 m/s 763 mmHg 52%
    21:00 +8°C° 0 mm 3 m/s 763 mmHg 56%
    22:00 +7°C° 0 mm 4 m/s 763 mmHg 60%
    23:00 +6°C° 0 mm 4 m/s 763 mmHg 62%

    Amanhã, 21 Agosto, Terça-feira

    Tempo Temperatura Precipitação Vento Pressão Humidade
    00:00 +6°C° 0 mm 5 m/s 762 mmHg 64%
    01:00 +6°C° 0 mm 5 m/s 762 mmHg 67%
    02:00 +6°C° 0 mm 5 m/s 762 mmHg 67%
    03:00 +6°C° 0 mm 5 m/s 761 mmHg 67%
    04:00 +5°C° 0 mm 6 m/s 761 mmHg 67%
    05:00 +5°C° 0 mm 6 m/s 761 mmHg 66%
    06:00 +5°C° 0 mm 6 m/s 761 mmHg 66%
    07:00 +5°C° 0 mm 6 m/s 761 mmHg 65%
    08:00 +9°C° 0 mm 6 m/s 761 mmHg 57%
    09:00 +11°C° 0 mm 6 m/s 761 mmHg 49%
    10:00 +15°C° 0 mm 6 m/s 761 mmHg 40%
    11:00 +16°C° 0 mm 6 m/s 760 mmHg 39%
    12:00 +17°C° 0 mm 6 m/s 759 mmHg 37%
    13:00 +17°C° 0 mm 6 m/s 758 mmHg 36%
    14:00 +17°C° 0 mm 6 m/s 758 mmHg 38%
    15:00 +16°C° 0 mm 7 m/s 758 mmHg 40%
    16:00 +16°C° 0 mm 7 m/s 758 mmHg 42%
    17:00 +14°C° 0 mm 7 m/s 758 mmHg 46%
    18:00 +12°C° 0 mm 7 m/s 758 mmHg 50%
    19:00 +11°C° 0 mm 7 m/s 759 mmHg 54%
    20:00 +10°C° 0 mm 7 m/s 759 mmHg 56%
    21:00 +10°C° 0 mm 7 m/s 759 mmHg 59%
    22:00 +9°C° 0 mm 7 m/s 760 mmHg 62%
    23:00 +9°C° 0 mm 7 m/s 760 mmHg 64%

    Depois de amanhã, 22 Agosto, Quarta-feira

    Tempo Temperatura Precipitação Vento Pressão Humidade
    00:00 +8°C° 0 mm 7 m/s 759 mmHg 65%
    01:00 +8°C° 0 mm 7 m/s 759 mmHg 66%
    02:00 +8°C° 0 mm 6 m/s 759 mmHg 67%
    03:00 +7°C° 0 mm 6 m/s 759 mmHg 68%
    04:00 +7°C° 0 mm 6 m/s 759 mmHg 70%
    05:00 +7°C° 0 mm 5 m/s 759 mmHg 71%
    06:00 +6°C° 0 mm 5 m/s 760 mmHg 71%
    07:00 +6°C° 0 mm 5 m/s 760 mmHg 72%
    08:00 +9°C° 0 mm 5 m/s 760 mmHg 62%
    09:00 +12°C° 0 mm 5 m/s 761 mmHg 52%
    10:00 +15°C° 0 mm 5 m/s 761 mmHg 41%
    11:00 +17°C° 0 mm 4 m/s 760 mmHg 38%
    12:00 +18°C° 0 mm 4 m/s 760 mmHg 35%
    13:00 +19°C° 0 mm 3 m/s 760 mmHg 31%
    14:00 +19°C° 0 mm 3 m/s 760 mmHg 34%
    15:00 +18°C° 0 mm 4 m/s 760 mmHg 37%
    16:00 +17°C° 0 mm 4 m/s 760 mmHg 40%
    17:00 +16°C° 0 mm 3 m/s 761 mmHg 46%
    18:00 +13°C° 0 mm 3 m/s 761 mmHg 53%
    19:00 +12°C° 0 mm 3 m/s 762 mmHg 59%
    20:00 +12°C° 0 mm 2 m/s 762 mmHg 62%
    21:00 +12°C° 0 mm 2 m/s 763 mmHg 64%
    22:00 +10°C° 0 mm 2 m/s 763 mmHg 67%
    23:00 +10°C° 0 mm 2 m/s 763 mmHg 70%

    23 Agosto, Quinta-feira

    Tempo Temperatura Precipitação Vento Pressão Humidade
    00:00 +9°C° 0 mm 2 m/s 763 mmHg 72%
    01:00 +8°C° 0 mm 2 m/s 763 mmHg 75%
    02:00 +8°C° 0 mm 2 m/s 763 mmHg 77%
    03:00 +7°C° 0 mm 2 m/s 763 mmHg 79%
    04:00 +7°C° 0 mm 2 m/s 762 mmHg 81%
    05:00 +7°C° 0 mm 2 m/s 763 mmHg 80%
    06:00 +7°C° 0 mm 2 m/s 763 mmHg 80%
    07:00 +7°C° 0 mm 2 m/s 764 mmHg 79%
    08:00 +10°C° 0 mm 2 m/s 764 mmHg 68%
    09:00 +14°C° 0 mm 2 m/s 764 mmHg 56%
    10:00 +18°C° 0 mm 1 m/s 764 mmHg 45%
    11:00 +18°C° 0 mm 2 m/s 764 mmHg 45%
    12:00 +18°C° 0 mm 2 m/s 763 mmHg 44%
    13:00 +18°C° 0 mm 2 m/s 763 mmHg 44%
    14:00 +18°C° 0 mm 2 m/s 762 mmHg 45%
    15:00 +18°C° 0 mm 3 m/s 762 mmHg 47%
    16:00 +18°C° 0 mm 3 m/s 762 mmHg 49%
    17:00 +16°C° 0 mm 3 m/s 763 mmHg 58%
    18:00 +13°C° 0 mm 3 m/s 763 mmHg 67%
    19:00 +12°C° 0 mm 3 m/s 764 mmHg 76%
    20:00 +11°C° 0 mm 3 m/s 764 mmHg 80%
    21:00 +10°C° 0 mm 3 m/s 765 mmHg 84%
    22:00 +10°C° 0 mm 3 m/s 765 mmHg 88%
    23:00 +9°C° 0,1 mm 3 m/s 765 mmHg 90%

    24 Agosto, Sexta-feira

    Tempo Temperatura Precipitação Vento Pressão Humidade
    00:00 +9°C° 0,1 mm 2 m/s 765 mmHg 91%
    01:00 +9°C° 0,1 mm 2 m/s 765 mmHg 93%
    02:00 +8°C° 0,2 mm 2 m/s 765 mmHg 93%
    03:00 +8°C° 0,2 mm 2 m/s 764 mmHg 94%
    04:00 +8°C° 0,2 mm 2 m/s 764 mmHg 95%
    05:00 +8°C° 0,3 mm 2 m/s 765 mmHg 95%
    06:00 +8°C° 0,3 mm 2 m/s 765 mmHg 94%
    07:00 +8°C° 0,3 mm 2 m/s 766 mmHg 94%
    08:00 +12°C° 0,1 mm 2 m/s 766 mmHg 83%
    09:00 +15°C° 0,1 mm 2 m/s 766 mmHg 71%
    10:00 +18°C° 0,1 mm 2 m/s 766 mmHg 60%
    11:00 +18°C° 0,1 mm 2 m/s 765 mmHg 56%
    12:00 +19°C° 0,1 mm 3 m/s 765 mmHg 52%
    13:00 +20°C° 0,1 mm 4 m/s 764 mmHg 48%
    14:00 +19°C° 0 mm 4 m/s 764 mmHg 51%
    15:00 +19°C° 0 mm 5 m/s 764 mmHg 54%
    16:00 +17°C° 0 mm 5 m/s 764 mmHg 57%
    17:00 +16°C° 0,1 mm 5 m/s 765 mmHg 65%
    18:00 +14°C° 0,1 mm 5 m/s 765 mmHg 73%
    19:00 +13°C° 0,1 mm 5 m/s 766 mmHg 81%
    20:00 +12°C° 0,1 mm 5 m/s 766 mmHg 83%
    21:00 +12°C° 0,1 mm 5 m/s 766 mmHg 84%
    22:00 +12°C° 0,1 mm 5 m/s 766 mmHg 86%
    23:00 +12°C° 0,1 mm 4 m/s 766 mmHg 86%

    25 Agosto, Sábado

    Tempo Temperatura Precipitação Vento Pressão Humidade
    00:00 +12°C° 0,1 mm 4 m/s 765 mmHg 86%
    01:00 +12°C° 0,1 mm 4 m/s 765 mmHg 86%
    02:00 +12°C° 0,5 mm 4 m/s 765 mmHg 87%
    03:00 +12°C° 0,5 mm 4 m/s 765 mmHg 88%
    04:00 +12°C° 0,5 mm 4 m/s 765 mmHg 90%
    05:00 +12°C° 0,9 mm 4 m/s 765 mmHg 90%
    06:00 +13°C° 0,9 mm 5 m/s 765 mmHg 91%
    07:00 +13°C° 0,9 mm 5 m/s 765 mmHg 92%
    08:00 +13°C° 1,2 mm 5 m/s 765 mmHg 92%
    09:00 +13°C° 1,2 mm 6 m/s 765 mmHg 91%
    10:00 +14°C° 1,2 mm 6 m/s 765 mmHg 91%
    11:00 +14°C° 0,8 mm 6 m/s 765 mmHg 86%
    12:00 +15°C° 0,8 mm 6 m/s 764 mmHg 80%
    13:00 +16°C° 0,8 mm 6 m/s 764 mmHg 75%
    14:00 +16°C° 0,4 mm 6 m/s 763 mmHg 75%
    15:00 +16°C° 0,4 mm 6 m/s 763 mmHg 75%
    16:00 +16°C° 0,4 mm 7 m/s 763 mmHg 76%
    17:00 +15°C° 0,6 mm 6 m/s 763 mmHg 80%
    18:00 +14°C° 0,6 mm 6 m/s 763 mmHg 84%
    19:00 +14°C° 0,6 mm 6 m/s 764 mmHg 88%
    20:00 +14°C° 0,6 mm 6 m/s 764 mmHg 90%
    21:00 +13°C° 0,6 mm 6 m/s 764 mmHg 91%
    22:00 +13°C° 0,6 mm 5 m/s 764 mmHg 93%
    23:00 +13°C° 0,3 mm 5 m/s 763 mmHg 93%
    Mostrar mais